Melbourne Airport, Australia

12:48 PM AEDT on December 13, 2018 (GMT +1100)
Melbourne International

Weather History for YMML - December, 2018

Change the Weather History Date:

Thursday, December 6, 2018

  Actual Average Record
Temperature  
Mean Temperature 74 °F -  
Max Temperature 95 °F 74 °F 95 °F (2018)
Min Temperature 54 °F 52 °F 42 °F (2002)
Cooling Degree Days 10    
Growing Degree Days 24 (Base 50)    
Moisture  
Dew Point 51 °F    
Average Humidity 45    
Maximum Humidity 94    
Minimum Humidity 12    
Precipitation  
Precipitation 0.00 in 0.06 in - ()
Sea Level Pressure  
Sea Level Pressure 29.98 in    
Wind  
Wind Speed 12 mph ()    
Max Wind Speed 25 mph    
Max Gust Speed 34 mph    
Averages and records for this station are not official NWS values.
T = Trace of Precipitation, MM = Missing Value Source: Averaged Metar Reports

Daily Weather History Graph

Daily Weather History Graph

Search for Another Location

Airport or City:

Astronomy

Dec. 06, 2018 Rise Set
Actual Time 5:52 AM AEDT 8:31 PM AEDT
Civil Twilight 5:21 AM AEDT 9:01 PM AEDT
Nautical Twilight 4:43 AM AEDT 9:40 PM AEDT
Astronomical Twilight 4:00 AM AEDT 10:23 PM AEDT
Moon 5:13 AM AEDT (12/6) 7:20 PM AEDT (12/6)
Length of Visible Light 15h 40m
Length of Day
14h 38m
Waning Crescent, 2% of the Moon is Illuminated
Dec 6
Waning Crescent
Dec 7
New
Dec 15
First Quarter
Dec 23
Full
Dec 29
Last Quarter

Hourly Weather History & Observations

Time (AEDT) Temp. Heat Index Dew Point Humidity Pressure Visibility Wind Dir Wind Speed Gust Speed Precip Events Conditions
12:00 AM 59 °F - 56 °F 85% 30.07 in 25 mi West 8.1 mph - -   Partly Cloudy
12:00 AM 59.0 °F - 55.4 °F 88% 30.06 in - West 8.1 mph - N/A   Clear
12:30 AM 57.2 °F - 55.4 °F 94% 30.06 in - WNW 5.8 mph - N/A   Clear
1:00 AM 57 °F - 55 °F 89% 30.06 in - NNW 4.6 mph - -  
1:00 AM 57.2 °F - 55.4 °F 94% 30.04 in - NNW 4.6 mph - N/A   Clear
1:30 AM 57.2 °F - 55.4 °F 94% 30.04 in - NNW 4.6 mph - N/A   Clear
2:00 AM 57 °F - 54 °F 88% 30.05 in - North 8.1 mph - -  
2:00 AM 57.2 °F - 55.4 °F 94% 30.04 in - North 8.1 mph - N/A   Clear
2:30 AM 57.2 °F - 53.6 °F 88% 30.01 in - North 9.2 mph - N/A   Clear
3:00 AM 57 °F - 53 °F 81% 30.02 in 25 mi North 6.9 mph - -   Partly Cloudy
3:00 AM 57.2 °F - 53.6 °F 88% 30.01 in - North 6.9 mph - N/A   Clear
3:30 AM 57.2 °F - 53.6 °F 88% 30.01 in - North 9.2 mph - N/A   Clear
4:00 AM 57 °F - 53 °F 83% 30.01 in - North 10.4 mph - -  
4:00 AM 57.2 °F - 53.6 °F 88% 30.01 in - North 10.4 mph - N/A   Clear
4:30 AM 55.4 °F - 51.8 °F 88% 30.01 in - North 9.2 mph - N/A   Clear
5:00 AM 55 °F - 52 °F 86% 30.01 in - North 8.1 mph - -  
5:00 AM 55.4 °F - 51.8 °F 88% 30.01 in - North 8.1 mph - N/A   Clear
5:30 AM 55.4 °F - 51.8 °F 88% 30.01 in - North 2.3 mph - N/A   Clear
6:00 AM 55.4 °F - 51.8 °F 88% 30.01 in - North 3.5 mph - N/A   Clear
6:30 AM 57.2 °F - 51.8 °F 82% 30.04 in - Calm Calm - N/A   Clear
7:00 AM 59 °F - 54 °F 80% 30.04 in - NNW 4.6 mph - -  
7:00 AM 59.0 °F - 55.4 °F 88% 30.04 in - NNW 4.6 mph - N/A   Clear
7:27 AM 68.0 °F - 53.6 °F 60% 30.04 in - North 16.1 mph - N/A   Clear
7:30 AM 68.0 °F - 53.6 °F 60% 30.04 in - North 16.1 mph - N/A   Clear
7:52 AM 71.6 °F - 53.6 °F 53% 30.04 in - North 23.0 mph - N/A   Clear
8:00 AM 73.4 °F - 53.6 °F 50% 30.04 in - North 24.2 mph - N/A   Clear
9:00 AM 76 °F - 52 °F 32% 30.05 in 25 mi North 25.3 mph - -   Partly Cloudy
9:00 AM 75.2 °F - 51.8 °F 44% 30.04 in - North 25.3 mph - N/A   Clear
9:30 AM 77.0 °F - 51.8 °F 41% 30.04 in - North 24.2 mph - N/A   Clear
10:00 AM 80 °F - 53 °F 28% 30.04 in - North 21.9 mph - -  
10:00 AM 78.8 °F - 53.6 °F 42% 30.04 in - North 21.9 mph - N/A   Clear
10:30 AM 82.4 °F 81.4 °F 53.6 °F 37% 30.04 in - North 23.0 mph - N/A   Clear
11:00 AM 84 °F - 53 °F 24% 30.03 in - North 23.0 mph - -  
11:00 AM 84.2 °F 82.8 °F 53.6 °F 35% 30.01 in - North 23.0 mph - N/A   Clear
11:08 AM 84.2 °F 82.8 °F 53.6 °F 35% 30.01 in - North 23.0 mph 34.5 mph N/A   Clear
11:30 AM 86.0 °F 84.2 °F 53.6 °F 33% 30.01 in - North 21.9 mph - N/A   Clear
12:00 PM 86 °F - 52 °F 21% 30.01 in 22 mi North 19.6 mph - -   Partly Cloudy
12:00 PM 86.0 °F - 51.8 °F 31% 30.01 in - North 19.6 mph - N/A   Clear
12:30 PM 87.8 °F - 51.8 °F 29% 30.01 in - North 20.7 mph - N/A   Clear
1:00 PM 90 °F - 54 °F 19% 29.99 in - North 20.7 mph - -  
1:00 PM 89.6 °F 87.3 °F 53.6 °F 29% 29.98 in - North 20.7 mph - N/A   Clear
1:30 PM 89.6 °F - 51.8 °F 27% 29.98 in - North 18.4 mph 29.9 mph N/A   Clear
2:00 PM 92 °F - 54 °F 18% 29.96 in - North 18.4 mph - -  
2:00 PM 91.4 °F 89.1 °F 53.6 °F 28% 29.95 in - North 18.4 mph - N/A   Clear
2:01 PM 91.4 °F - 51.8 °F 26% 29.95 in - North 19.6 mph 31.1 mph N/A   Clear
2:36 PM 93.2 °F - 50.0 °F 23% 29.95 in - North 17.3 mph 28.8 mph N/A   Clear
3:00 PM 92 °F - 46 °F 12% 29.94 in 22 mi North 17.3 mph - -   Partly Cloudy
3:00 PM 91.4 °F - 46.4 °F 21% 29.95 in - North 17.3 mph - N/A   Clear
3:15 PM 93.2 °F - 50.0 °F 23% 29.95 in - North 17.3 mph 29.9 mph N/A   Clear
3:30 PM 95.0 °F - 50.0 °F 22% 29.92 in - North 17.3 mph 29.9 mph N/A   Clear
4:00 PM 94 °F - 47 °F 12% 29.93 in - NW 16.1 mph - -  
4:00 PM 93.2 °F - 46.4 °F 20% 29.92 in - NW 16.1 mph - N/A   Clear
4:30 PM 95.0 °F - 50.0 °F 22% 29.92 in - North 10.4 mph - N/A   Clear
4:49 PM 95.0 °F - 46.4 °F 19% 29.92 in - North 21.9 mph - N/A   Clear
5:00 PM 93 °F - 47 °F 12% 29.91 in - NNW 13.8 mph - -  
5:00 PM 93.2 °F - 46.4 °F 20% 29.92 in - NNW 13.8 mph - N/A   Clear
5:30 PM 93.2 °F - 48.2 °F 21% 29.89 in - North 15.0 mph - N/A   Clear
6:00 PM 94 °F - 47 °F 12% 29.89 in 22 mi North 16.1 mph - -   Partly Cloudy
6:00 PM 93.2 °F - 46.4 °F 20% 29.89 in - North 16.1 mph - N/A   Clear
6:30 PM 93.2 °F - 48.2 °F 21% 29.89 in - North 13.8 mph - N/A   Clear
7:00 PM 91 °F - 49 °F 15% 29.89 in - North 11.5 mph - -  
7:00 PM 91.4 °F - 50.0 °F 24% 29.89 in - North 11.5 mph - N/A   Clear
7:30 PM 91.4 °F - 50.0 °F 24% 29.89 in - NNE 11.5 mph - N/A   Clear
8:00 PM 88 °F - 51 °F 18% 29.90 in - NNE 12.7 mph - -  
8:00 PM 87.8 °F - 51.8 °F 29% 29.89 in - NNE 12.7 mph - N/A   Clear
8:30 PM 86.0 °F - 50.0 °F 29% 29.89 in - NNE 12.7 mph - N/A   Clear
9:00 PM 86 °F - 50 °F 19% 29.90 in 25 mi NE 11.5 mph - -   Partly Cloudy
9:00 PM 86.0 °F - 50.0 °F 29% 29.89 in - NNE 11.5 mph - N/A   Clear
9:30 PM 84.2 °F - 50.0 °F 30% 29.89 in - NNE 13.8 mph - N/A   Clear
10:00 PM 81 °F - 51 °F 25% 29.91 in - NNE 13.8 mph - -  
10:00 PM 80.6 °F - 51.8 °F 37% 29.92 in - NNE 13.8 mph - N/A   Clear
10:30 PM 82.4 °F - 50.0 °F 32% 29.92 in - NNE 17.3 mph - N/A   Clear
10:49 PM 84.2 °F - 48.2 °F 29% 29.89 in - NNE 17.3 mph 29.9 mph N/A   Clear
11:00 PM 83 °F - 47 °F 19% 29.91 in - NNE 17.3 mph - -  
11:00 PM 84.2 °F - 46.4 °F 27% 29.92 in - NNE 17.3 mph - N/A   Clear
11:30 PM 80.6 °F - 48.2 °F 32% 29.92 in - North 12.7 mph - N/A   Clear